Location: Wanzleben
(52.0609°N, 11.4408°E)
Time: 11:27:13
(UTC+00:00)

Cosmos 2263 Rocket - Pass Details

Date: 25 January 2021
Orbit: 825 x 847 km, 71.0° (Epoch: 24 February)

Event Time Altitude Azimuth Distance (km) Brightness Sun altitude
Rises 17:36:30 0° 253° (WSW) 3,402 7.1 -16.2°
Reaches altitude 10° 17:39:22 10° 266° (W) 2,467 6.0 -16.6°
Maximum altitude 17:44:02 26° 322° (NW) 1,622 4.0 -17.3°
Drops below altitude 10° 17:48:42 10° 18° (NNE) 2,465 4.4 -18.0°
Enters shadow 17:49:32 - 22° (NNE) 2,720 4.6 -18.2°
